Tracking 35048 objects as of 19-Aug-2026
HD Live streaming from Space Station
objects crossing your sky now

SL-4 R/B


SL-4 R/B is no longer on orbit


NORAD ID: 9480
Int'l Code: 1976-100B
Launch date: October 14, 1976
Source: Commonwealth of Independent States (former USSR) (CIS)
Launch site: TYURATAM MISSILE AND SPACE COMPLEX (TTMTR)
Decay date: 1976-10-16

Note: This is a ROCKET BODY
Your satellite tracking list
Your tracking list is empty




NASA's NSSDC Master Catalog

Two Line Element Set (TLE):
1 09480U 76100  B 76290.38469837  .05780887 +00000-0 +00000-0 0  9990
2 09480 051.6009 288.9208 0012606 100.1074 260.1332 16.35384560000276
Source of the keplerian elements: AFSPC